Location: Broletto
(44.6000°N, 10.5833°E)
Time: 02:37:48
(UTC+00:00)

Ariane Rocket - Pass Details

Date: 18 April 2021
Orbit: 760 x 770 km, 98.7° (Epoch: 07 May)

Event Time Altitude Azimuth Distance (km) Brightness Sun altitude
Exits shadow 20:07:30 - 196° (SSW) 2,414 5.3 -19.7°
Reaches altitude 10° 20:07:51 10° 197° (SSW) 2,289 5.2 -19.8°
Maximum altitude 20:12:26 35° 263° (W) 1,220 4.4 -20.4°
Drops below altitude 10° 20:17:03 10° 329° (NNW) 2,301 6.5 -21.0°
Sets 20:19:33 0° 338° (NNW) 3,231 7.3 -21.4°
